Overview Statistics Trail Chart Weather Telemetry Raw packets
 

This is the latest recevied weather packets stored in our database for station/object KN6WGU. If no packets are shown the sender has not sent any weather packets the latest 10 day(s).

<< 22 23 24 25 26 27 28 >>
Time Temp. Humidity Pressure Rain* Wind** Luminosity Snow
1788460982 32.22° C 70% 1007.3 hPa 0 mm - 499 W/m² -
1788460676 31.67° C 69% 1007.3 hPa 0 mm - 562 W/m² -
1788460370 31.67° C 70% 1007.3 hPa 0 mm - 599 W/m² -
1788460069 31.67° C 71% 1007 hPa 0 mm - 504 W/m² -
1788459765 32.22° C 69% 1007.2 hPa 0 mm - 248 W/m² -
1788459464 33.89° C 66% 1007.3 hPa 0 mm - 509 W/m² -
1788459158 33.89° C 66% 1007.3 hPa 0 mm - 597 W/m² -
1788458854 33.33° C 67% 1007.1 hPa 0 mm - 597 W/m² -
1788458552 32.78° C 67% 1007.2 hPa 0 mm - 593 W/m² -
1788458247 32.78° C 67% 1007.2 hPa 0 mm - 597 W/m² -
1788457946 33.33° C 67% 1007.3 hPa 0 mm - 591 W/m² -
1788457646 33.33° C 67% 1007.4 hPa 0 mm - 582 W/m² -
1788457341 32.78° C 68% 1007.3 hPa 0 mm - 574 W/m² -
1788457036 32.78° C 68% 1007.2 hPa 0 mm - 566 W/m² -
1788456732 32.78° C 69% 1007.5 hPa 0 mm - 567 W/m² -
1788456426 32.78° C 68% 1007.6 hPa 0 mm - 247 W/m² -
1788456121 32.78° C 68% 1007.4 hPa 0 mm - 201 W/m² -
1788455816 32.78° C 69% 1007.8 hPa 0 mm - 215 W/m² -
1788455512 32.78° C 69% 1007.8 hPa 0 mm - 209 W/m² -
1788455210 32.78° C 68% 1007.7 hPa 0 mm - 227 W/m² -
1788454907 32.22° C 71% 1007.8 hPa 0 mm - 249 W/m² -
1788454604 32.22° C 70% 1008 hPa 0 mm - 362 W/m² -
1788454299 31.67° C 72% 1007.7 hPa 0 mm - 205 W/m² -
1788453994 31.67° C 72% 1007.8 hPa 0 mm - 239 W/m² -
1788453690 31.11° C 72% 1007.9 hPa 0 mm - 232 W/m² -

* Rain latest hour (hover to see other rain measurements)
** Current wind speed in m/s (hover to see current wind gust speed)